Presidio Lely Intl, Presidio,, TX

8:45 PM CDT on March 28, 2017 (GMT -0500)
Presidio Lely Intl, Presidio,

Weather History for KPRS - January, 2014

Change the Weather History Date:

Thursday, January 2, 2014

  Actual Average (KMRF) Record (KMRF)
Temperature  
Mean Temperature 51 °F -  
Max Temperature 61 °F 56 °F 71 °F (1997)
Min Temperature 41 °F 25 °F 10 °F (2011)
Degree Days  
Heating Degree Days 14    
Growing Degree Days 1 (Base 50)    
Moisture  
Dew Point 25 °F    
Average Humidity 36    
Maximum Humidity 57    
Minimum Humidity 23    
Precipitation  
Precipitation 0.00 in - - ()
Sea Level Pressure  
Sea Level Pressure 30.31 in    
Wind  
Wind Speed 10 mph (NNE)    
Max Wind Speed 25 mph    
Max Gust Speed 31 mph    
Visibility 10 miles    
Events      
Averages and records for this station are not official NWS values.
T = Trace of Precipitation, MM = Missing Value Source: NWS Daily Summary

Daily Weather History Graph

Daily Weather History Graph

Search for Another Location

Airport or City:

Trip Planner

Search our weather history database for the weather conditions in past years. The results will help you decide how hot, cold, wet, or windy it might be!

Date:

Astronomy

Jan. 02, 2014 Rise Set
Actual Time 7:52 AM CST 6:10 PM CST
Civil Twilight 7:26 AM CST 6:36 PM CST
Nautical Twilight 6:57 AM CST 7:06 PM CST
Astronomical Twilight 6:27 AM CST 7:35 PM CST
Moon 8:44 AM CST (1/2) 8:00 PM CST (1/2)
Length of Visible Light 11h 09m
Length of Day
10h 17m
Waxing Crescent, 3% of the Moon is Illuminated
Jan 2
Waxing Crescent
Jan 7
First Quarter
Jan 15
Full
Jan 23
Last Quarter
Jan 30
New

Hourly Weather History & Observations

Time (CST) Temp. Windchill Dew Point Humidity Pressure Visibility Wind Dir Wind Speed Gust Speed Precip Events Conditions
12:15 AM 52.3 °F - 25.7 °F 36% 30.17 in 10.0 mi NNW 4.6 mph - N/A   Clear
12:35 AM 52.7 °F - 25.3 °F 35% 30.18 in 10.0 mi North 6.9 mph - N/A   Clear
12:55 AM 49.5 °F - 25.7 °F 40% 30.19 in 10.0 mi Calm Calm - N/A   Clear
1:15 AM 47.3 °F - 25.0 °F 42% 30.21 in 10.0 mi NE 3.5 mph - N/A   Clear
1:35 AM 51.6 °F - 23.9 °F 34% 30.21 in 10.0 mi North 8.1 mph - N/A   Clear
1:55 AM 52.7 °F - 25.5 °F 35% 30.21 in 10.0 mi North 23.0 mph 29.9 mph N/A   Clear
2:15 AM 52.9 °F - 25.5 °F 35% 30.22 in 10.0 mi North 20.7 mph 29.9 mph N/A   Clear
2:35 AM 52.2 °F - 25.7 °F 36% 30.23 in 10.0 mi North 23.0 mph 31.1 mph N/A   Clear
2:55 AM 51.6 °F - 25.7 °F 37% 30.24 in 10.0 mi North 25.3 mph 29.9 mph N/A   Clear
3:15 AM 51.1 °F - 26.1 °F 38% 30.25 in 10.0 mi North 25.3 mph 31.1 mph N/A   Clear
3:35 AM 50.5 °F - 26.1 °F 39% 30.27 in 10.0 mi North 20.7 mph 31.1 mph N/A   Clear
3:55 AM 49.6 °F - 26.2 °F 40% 30.30 in 10.0 mi NNW 11.5 mph 25.3 mph N/A   Clear
4:15 AM 48.9 °F - 26.4 °F 42% 30.31 in 10.0 mi North 11.5 mph 17.3 mph N/A   Clear
4:35 AM 48.7 °F - 26.4 °F 42% 30.31 in 10.0 mi North 13.8 mph 19.6 mph N/A   Clear
4:55 AM 47.8 °F - 26.6 °F 44% 30.32 in 10.0 mi North 9.2 mph 16.1 mph N/A   Clear
5:15 AM 47.1 °F - 26.6 °F 45% 30.32 in 10.0 mi North 12.7 mph - N/A   Clear
5:35 AM 46.6 °F - 26.6 °F 46% 30.32 in 10.0 mi North 15.0 mph 21.9 mph N/A   Clear
5:55 AM 46.0 °F 41.4 °F 26.6 °F 47% 30.34 in 10.0 mi North 9.2 mph - N/A   Clear
6:15 AM 45.5 °F 41.8 °F 26.4 °F 47% 30.35 in 10.0 mi NNE 6.9 mph - N/A   Clear
6:35 AM 45.5 °F 40.8 °F 27.1 °F 49% 30.36 in 10.0 mi NNE 9.2 mph - N/A   Clear
6:55 AM 45.0 °F 39.3 °F 27.3 °F 50% 30.36 in 10.0 mi NNE 11.5 mph 18.4 mph N/A   Clear
7:15 AM 44.1 °F 40.1 °F 27.5 °F 52% 30.37 in 10.0 mi NNE 6.9 mph - N/A   Clear
7:35 AM 43.9 °F 39.3 °F 27.5 °F 53% 30.38 in 10.0 mi NNE 8.1 mph - N/A   Clear
7:55 AM 42.6 °F 39.9 °F 27.3 °F 55% 30.39 in 10.0 mi NNE 4.6 mph - N/A   Clear
8:15 AM 41.7 °F 37.3 °F 27.3 °F 57% 30.39 in 10.0 mi North 6.9 mph - N/A   Clear
8:35 AM 44.1 °F 39.5 °F 27.5 °F 52% 30.40 in 10.0 mi North 8.1 mph - N/A   Clear
8:55 AM 44.8 °F - 27.5 °F 51% 30.42 in 10.0 mi Calm Calm - N/A   Clear
9:15 AM 46.4 °F 42.4 °F 27.3 °F 47% 30.42 in 10.0 mi North 8.1 mph - N/A   Clear
9:35 AM 47.3 °F - 27.1 °F 46% 30.43 in 10.0 mi North 10.4 mph - N/A   Clear
9:55 AM 48.4 °F - 26.6 °F 43% 30.43 in 10.0 mi NNE 8.1 mph - N/A   Clear
10:15 AM 49.3 °F - 27.1 °F 42% 30.45 in 10.0 mi East 10.4 mph - N/A   Clear
10:35 AM 49.5 °F - 26.6 °F 41% 30.45 in 10.0 mi NE 11.5 mph - N/A   Clear
10:55 AM 50.0 °F - 26.6 °F 40% 30.44 in 10.0 mi NE 11.5 mph - N/A   Clear
11:15 AM 50.5 °F - 26.6 °F 39% 30.43 in 10.0 mi NE 10.4 mph 18.4 mph N/A   Clear
11:35 AM 50.5 °F - 26.6 °F 39% 30.43 in 10.0 mi ENE 9.2 mph - N/A   Clear
11:55 AM 52.2 °F - 26.4 °F 37% 30.41 in 10.0 mi NE 6.9 mph - N/A   Clear
12:15 PM 53.1 °F - 25.7 °F 35% 30.40 in 10.0 mi NE 8.1 mph - N/A   Clear
12:35 PM 53.4 °F - 25.3 °F 34% 30.38 in 10.0 mi ENE 11.5 mph - N/A   Clear
12:55 PM 54.9 °F - 25.2 °F 32% 30.37 in 10.0 mi ENE 5.8 mph - N/A   Clear
1:15 PM 55.4 °F - 25.5 °F 32% 30.34 in 10.0 mi ENE 8.1 mph - N/A   Clear
1:35 PM 55.8 °F - 25.5 °F 31% 30.33 in 10.0 mi ENE 8.1 mph - N/A   Clear
1:55 PM 57.0 °F - 25.5 °F 30% 30.32 in 10.0 mi NE 5.8 mph - N/A   Clear
2:15 PM 57.6 °F - 25.3 °F 29% 30.31 in 10.0 mi ENE 6.9 mph - N/A   Clear
2:35 PM 58.1 °F - 25.0 °F 28% 30.30 in 10.0 mi ESE 4.6 mph - N/A   Clear
2:55 PM 59.0 °F - 24.6 °F 27% 30.30 in 10.0 mi ESE 3.5 mph - N/A   Clear
3:15 PM 59.0 °F - 24.6 °F 27% 30.29 in 10.0 mi East 3.5 mph - N/A   Clear
3:35 PM 60.3 °F - 23.7 °F 25% 30.28 in 10.0 mi Calm Calm - N/A   Clear
3:55 PM 60.6 °F - 24.1 °F 25% 30.28 in 10.0 mi ENE 3.5 mph - N/A   Clear
4:15 PM 61.0 °F - 23.7 °F 24% 30.28 in 10.0 mi ESE 3.5 mph - N/A   Clear
4:35 PM 61.2 °F - 22.8 °F 23% 30.28 in 10.0 mi NNE 6.9 mph - N/A   Clear
4:55 PM 61.0 °F - 22.6 °F 23% 30.27 in 10.0 mi ENE 6.9 mph - N/A   Clear
5:15 PM 60.8 °F - 22.6 °F 23% 30.27 in 10.0 mi NE 5.8 mph - N/A   Clear
5:35 PM 59.9 °F - 22.6 °F 24% 30.27 in 10.0 mi NNE 9.2 mph - N/A   Clear
5:55 PM 58.8 °F - 21.7 °F 24% 30.27 in 10.0 mi NNE 8.1 mph - N/A   Clear
6:15 PM 57.2 °F - 21.7 °F 25% 30.27 in 10.0 mi NNE 9.2 mph - N/A   Clear
6:35 PM 55.9 °F - 21.7 °F 27% 30.27 in 10.0 mi NNE 9.2 mph - N/A   Clear
6:55 PM 54.7 °F - 21.7 °F 28% 30.27 in 10.0 mi NE 10.4 mph - N/A   Clear
7:15 PM 53.8 °F - 21.9 °F 29% 30.28 in 10.0 mi NE 8.1 mph - N/A   Clear
7:35 PM 52.7 °F - 21.7 °F 30% 30.28 in 10.0 mi NE 8.1 mph - N/A   Clear
7:55 PM 52.0 °F - 21.7 °F 31% 30.28 in 10.0 mi NE 10.4 mph - N/A   Clear
8:15 PM 51.1 °F - 22.1 °F 32% 30.29 in 10.0 mi NE 10.4 mph - N/A   Clear
8:35 PM 50.9 °F - 21.7 °F 32% 30.29 in 10.0 mi NNE 11.5 mph 18.4 mph N/A   Clear
8:55 PM 50.0 °F - 21.0 °F 32% 30.29 in 10.0 mi NE 11.5 mph - N/A   Clear
9:15 PM 49.6 °F - 20.1 °F 31% 30.29 in 10.0 mi NE 10.4 mph - N/A   Clear
9:35 PM 49.1 °F - 20.3 °F 32% 30.30 in 10.0 mi NE 10.4 mph - N/A   Clear
9:55 PM 48.6 °F - 20.1 °F 33% 30.30 in 10.0 mi NNE 10.4 mph - N/A   Clear
10:15 PM 48.2 °F - 20.1 °F 33% 30.30 in 10.0 mi NNE 11.5 mph - N/A   Clear
10:35 PM 47.1 °F - 19.8 °F 34% 30.30 in 10.0 mi North 6.9 mph - N/A   Clear
10:55 PM 46.0 °F 40.6 °F 19.9 °F 35% 30.30 in 10.0 mi North 11.5 mph - N/A   Clear
11:15 PM 46.0 °F 41.0 °F 20.3 °F 36% 30.30 in 10.0 mi North 10.4 mph - N/A   Clear
11:35 PM 45.5 °F 39.6 °F 21.0 °F 38% 30.29 in 10.0 mi North 12.7 mph - N/A   Clear
11:55 PM 45.9 °F 40.4 °F 21.6 °F 38% 30.28 in 10.0 mi North 11.5 mph - N/A   Clear